Location: *
(40.3688°N, 3.6840°W)
Time: 16:45:44
(UTC+00:00)

Daily predictions for brighter satellites

Satellite Brightness Start Highest point End
(mag) Time Altitude Azimuth Time Altitude Azimuth Time Altitude Azimuth
Cosmos 1726 2.1 17:45:38 10° S 17:49:16 88° E 17:52:56 10° N
Okean-O 2.7 17:45:14 10° SSE 17:49:36 61° ENE 17:53:59 10° N
Delta 2 Rocket 4.1 17:48:49 10° WSW 17:52:19 36° S 17:55:32 10° ESE
Unknown 3.4 17:50:36 10° WNW 17:53:40 62° SW 17:56:46 10° SE
ATLAS 5 CENTAUR R/B 4.4 17:53:33 10° NW 17:54:14 10° NNW 17:54:56 10° NNW
NOSS 3-2 (A) 3.4 17:51:19 10° SSW 17:56:51 59° ESE 18:03:02 10° NE
COSMOS 2406 3.6 17:53:57 10° NNW 17:59:42 72° WSW 18:05:23 10° SSE
Cosmos 1703 3.2 17:56:16 10° N 18:00:12 75° E 18:04:05 10° SSE
Cosmos 1934 Rocket 4.1 17:54:48 10° N 18:01:12 87° E 18:07:35 10° S
Cosmos 1605 Rocket 4.0 17:56:08 10° N 18:02:12 58° E 18:08:09 10° SSE
Cosmos 1812 Rocket 4.1 18:02:56 10° SSE 18:07:01 38° E 18:11:09 10° NNE
Ariane Rocket 4.4 18:04:01 10° ESE 18:07:22 18° ENE 18:10:43 10° NNE
Meteor 2-10 4.3 18:02:53 10° SSW 18:07:54 70° W 18:12:56 10° N
Cosmos 1908 3.3 18:05:12 10° S 18:09:05 82° W 18:12:59 10° N
Cosmos 1727 Rocket 4.1 18:07:30 10° SSE 18:13:25 51° E 18:19:22 10° NNE
Cosmos 2278 Rocket 2.7 18:08:26 10° SW 18:14:03 64° WNW 18:19:43 10° NNE
YAOGAN 6 2.9 18:11:50 10° SSE 18:15:19 44° ENE 18:18:46 10° N
ASTEX 1 3.4 18:12:46 10° N 18:17:46 90° E 18:22:45 10° S
YAOGAN 1 3.0 18:14:27 10° SE 18:18:30 40° ENE 18:22:33 10° N
Cosmos 2297 4.0 18:15:01 10° S 18:20:23 44° ESE 18:25:48 10° NE
CSL-04 Rocket 3.9 18:15:10 10° SE 18:20:28 49° ENE 18:25:43 10° N
Lacrosse 5 1.9 18:15:49 10° NW 18:20:50 61° NE 18:25:46 10° ESE
SKYMED 2 3.5 18:18:11 10° NNE 18:22:33 80° ESE 18:26:53 10° S
Shenzhou-11 Module 2.9 18:20:27 10° W 18:23:05 39° SSW 18:25:16 13° SE
NOSS 3-2 (C) 3.4 18:18:25 10° SSW 18:23:58 60° ESE 18:30:12 10° NE
Unknown 3.1 18:21:02 10° NW 18:24:25 63° NE 18:26:46 18° ESE
CZ-4 R/B 1.4 18:20:28 10° SSE 18:24:36 62° ENE 18:28:47 10° N
BREEZE-M DEB (TANK) 3.7 18:09:58 10° SW 18:24:58 90° N 18:28:17 16° ENE
FengYun 1-2 T 4.2 18:26:58 10° SSE 18:32:36 83° ENE 18:38:13 10° NNW
Cosmos 1461 3.3 18:28:39 10° NW 18:32:45 65° WSW 18:36:59 10° SSE
Gbstr 26 Del rocket 4.1 18:26:52 10° NW 18:32:58 89° NNE 18:40:22 10° SE
USA 116 3.3 18:34:16 10° NNE 18:37:37 71° ESE 18:41:21 10° S
Cosmos-2242 3.8 18:34:31 10° SSE 18:38:16 29° E 18:42:00 10° NNE
Cosmos 44 3.2 18:35:37 10° SSW 18:40:37 85° ESE 18:45:15 11° NNE
FALCON 9 DEB 3.0 18:37:32 10° NW 18:41:00 75° NE 18:42:32 31° ESE
NOAA 11 4.4 18:37:45 10° SE 18:42:56 46° ENE 18:48:06 10° N
Cosmos 1763 Rocket 4.0 18:38:09 10° SSE 18:43:00 37° ESE 18:47:27 12° NE
EO 1 Delta rocket 3.8 18:38:25 10° SSE 18:43:00 82° E 18:48:06 10° N
Cosmos 1833 Rocket 3.1 18:39:44 10° NNW 18:45:18 64° WSW 18:50:50 10° S
ATLAS 3B R/B 2.7 18:39:44 10° SSW 18:46:21 59° ESE 18:52:29 12° NE
Cosmos 2100 Rocket 4.0 18:43:05 10° N 18:49:07 54° E 18:55:07 10° SSE
BREEZE-M DEB (TANK) 3.5 18:45:38 10° WSW 18:50:01 37° NNW 18:51:05 25° NNE
Cosmos 2084 Rocket 3.4 18:46:39 10° NNW 18:51:05 77° NE 18:53:37 25° SE
CENTAUR R/B 2.4 18:46:15 10° SSW 18:51:59 68° ESE 18:58:23 11° NE
Falcon 9 debris 3.2 18:49:48 10° NW 18:53:15 73° SW 18:54:26 38° SE
Cosmos 1300 2.8 18:51:14 10° SSW 18:55:01 73° W 18:58:52 10° N
Abrixas rocket 4.1 18:53:59 10° NW 18:56:11 18° N 18:56:26 18° N
SJ 16-02 2.4 18:53:29 10° N 18:56:27 27° NE 18:56:27 27° NE
Unknown 3.1 18:57:00 10° NW 19:00:32 86° SW 19:01:06 60° SE
Envisat 4.5 18:58:36 10° SSW 19:03:18 38° W 19:08:02 10° NNW
Cosmos 2016 Rocket 4.2 18:57:37 10° N 19:03:40 45° ENE 19:07:42 21° SE
Cosmos 2369 Rocket 3.6 19:01:49 10° SSE 19:04:06 21° SE 19:04:06 21° SE
Cosmos 44 Rocket 4.2 19:03:33 10° S 19:07:01 32° SE 19:07:01 32° SE
CZ-2D R/B 3.1 19:07:03 20° SSE 19:09:40 90° ESE 19:13:34 10° NNW
Cosmos 1898 Rocket 3.4 19:12:39 10° NNW 19:17:58 75° ENE 19:19:54 40° SSE
Cosmos 2058 3.1 19:14:23 10° NNW 19:18:35 70° W 19:22:45 10° S
MOS 1 4.3 19:17:41 47° ESE 19:18:38 53° ENE 19:24:07 10° N
H-2A R/B 3.7 19:21:20 20° NNE 19:21:20 20° NNE 19:23:28 10° N
Cosmos 2082 Rocket 3.1 19:15:13 10° NW 19:20:39 48° WSW 19:26:03 10° S
Unknown 4.0 19:18:08 10° WNW 19:21:29 46° SW 19:21:29 46° SW
Unknown 4.3 19:17:52 10° NW 19:20:35 39° NNW 19:20:35 39° NNW
Cosmos 1943 Rocket 2.8 19:16:54 10° S 19:20:37 36° SSE 19:20:37 36° SSE
Cosmos 1939 Rocket 3.1 19:22:35 30° S 19:24:25 68° WSW 19:28:30 10° NNW
Cosmos 1459 Rocket 4.1 19:26:35 10° N 19:32:50 74° W 19:39:08 10° S
IRS-1A Rocket 4.1 19:30:22 29° SSE 19:33:17 89° WSW 19:38:50 10° NNW
BREEZE-M DEB (TANK) 4.4 19:32:04 10° SW 19:36:26 72° SE 19:53:29 10° ENE
Cosmos 2151 4.3 19:36:48 10° N 19:39:06 31° N 19:39:06 31° N
Okean 3 Rocket 4.0 19:38:56 10° NNW 19:43:20 62° W 19:43:20 62° W
Ariane Rocket 3.5 19:42:26 20° S 19:45:50 57° W 19:50:53 10° NNW
Cosmos 2061 Rocket 4.0 19:40:42 10° N 19:46:56 79° W 19:51:09 22° S
ADEOS Rocket 3.4 19:53:39 10° NNE 20:06:23 19° S 20:08:02 10° S
Lacrosse 5 3.9 19:59:36 10° WNW 20:03:24 22° WSW 20:05:01 19° SSW
Cosmos 1937 Rocket 4.2 20:01:13 10° NNW 20:05:25 49° WNW 20:05:25 49° WNW
SJ 16-02 4.1 20:32:18 10° NW 20:33:29 16° WNW 20:33:29 16° WNW
ATLAS 3B R/B 4.1 20:31:34 10° WSW 20:37:23 31° NW 20:39:47 25° N
CENTAUR R/B 4.3 20:38:08 10° W 20:43:19 27° NW 20:45:37 23° N
